Change the Weather History Date:

Thursday, May 1, 2014

  Actual Average Record
Temperature  
Mean Temperature 75 °F 63 °F  
Max Temperature 81 °F 72 °F 94 °F (1942)
Min Temperature 69 °F 53 °F 38 °F (1876)
Degree Days  
Heating Degree Days 0 4  
Month to date heating degree days 0 4  
Since 1 July heating degree days 3416 3304  
Cooling Degree Days 10 2  
Month to date cooling degree days 10 2  
Year to date cooling degree days 37 46  
Growing Degree Days 24 (Base 50)    
Moisture  
Dew Point 65 °F    
Average Humidity 74    
Maximum Humidity 90    
Minimum Humidity 58    
Precipitation  
Precipitation 0.00 in 0.10 in 2.80 in (1886)
Month to date precipitation 0.00 0.10  
Year to date precipitation 14.98 13.71  
Snow  
Snow 0.00 in 0.00 in 0.00 in (2002)
Month to date snowfall 0.0 0.0  
Since 1 July snowfall 15.5 5.8  
Snow Depth 0.00 in    
Sea Level Pressure  
Sea Level Pressure 29.84 in    
Wind  
Wind Speed 16 mph (SSW)    
Max Wind Speed 26 mph    
Max Gust Speed 33 mph    
Visibility 10 miles    
Events      
T = Trace of Precipitation, MM = Missing Value Source: NWS Daily Summary

Daily Weather History Graph

Daily Weather History Graph

Search for Another Location

Airport or City:

Trip Planner

Search our weather history database for the weather conditions in past years. The results will help you decide how hot, cold, wet, or windy it might be!

Date:

Astronomy

May. 01, 2014 Rise Set
Actual Time 6:10 AM EDT 7:53 PM EDT
Civil Twilight 5:42 AM EDT 8:21 PM EDT
Nautical Twilight 5:09 AM EDT 8:55 PM EDT
Astronomical Twilight 4:33 AM EDT 9:31 PM EDT
Moon 7:57 AM EDT (5/1) 10:23 PM EDT (5/1)
Length of Visible Light 14h 38m
Length of Day
13h 42m
Waxing Crescent, 6% of the Moon is Illuminated
May 1
Waxing Crescent
May 6
First Quarter
May 14
Full
May 21
Last Quarter
May 28
New

Hourly Weather History & Observations

Time (EDT) Temp. Heat Index Dew Point Humidity Pressure Visibility Wind Dir Wind Speed Gust Speed Precip Events Conditions
12:51 AM 72.0 °F - 66.9 °F 84% 29.92 in 10.0 mi South 13.8 mph 23.0 mph N/A   Overcast
1:34 AM 72.0 °F - 68.0 °F 87% 29.91 in 10.0 mi SSW 13.8 mph - N/A   Overcast
1:51 AM 72.0 °F - 66.9 °F 84% 29.92 in 10.0 mi SSW 12.7 mph - N/A   Overcast
2:51 AM 72.0 °F - 66.9 °F 84% 29.90 in 10.0 mi South 15.0 mph - N/A   Overcast
3:00 AM 72.0 °F - 68.0 °F 87% 29.90 in 10.0 mi South 13.8 mph - N/A   Overcast
3:51 AM 71.1 °F - 66.9 °F 87% 29.87 in 10.0 mi South 16.1 mph 23.0 mph N/A   Mostly Cloudy
3:59 AM 71.1 °F - 66.9 °F 87% 29.88 in 10.0 mi South 18.4 mph 24.2 mph N/A   Scattered Clouds
4:51 AM 70.0 °F - 66.9 °F 90% 29.88 in 10.0 mi South 11.5 mph - N/A   Scattered Clouds
5:51 AM 70.0 °F - 66.9 °F 90% 29.88 in 10.0 mi SSW 10.4 mph - N/A   Partly Cloudy
6:51 AM 70.0 °F - 66.9 °F 90% 29.89 in 10.0 mi South 11.5 mph - N/A   Mostly Cloudy
7:51 AM 72.0 °F - 66.9 °F 84% 29.88 in 10.0 mi SSW 13.8 mph - N/A   Partly Cloudy
8:51 AM 72.0 °F - 66.0 °F 81% 29.87 in 10.0 mi SSW 13.8 mph - N/A   Overcast
9:51 AM 73.0 °F - 64.9 °F 76% 29.88 in 10.0 mi SSW 20.7 mph 25.3 mph N/A   Overcast
10:51 AM 77.0 °F - 66.0 °F 69% 29.86 in 10.0 mi SSW 17.3 mph 25.3 mph N/A   Mostly Cloudy
11:51 AM 79.0 °F - 64.0 °F 60% 29.84 in 10.0 mi SW 20.7 mph 27.6 mph N/A   Partly Cloudy
12:51 PM 79.0 °F - 64.0 °F 60% 29.83 in 10.0 mi SW 16.1 mph 24.2 mph N/A   Mostly Cloudy
1:51 PM 80.1 °F 81.7 °F 64.0 °F 58% 29.81 in 10.0 mi SSW 13.8 mph - N/A   Scattered Clouds
2:51 PM 80.1 °F 81.7 °F 64.0 °F 58% 29.80 in 10.0 mi SSW 17.3 mph 29.9 mph N/A   Scattered Clouds
3:51 PM 77.0 °F - 63.0 °F 62% 29.78 in 10.0 mi SSW 18.4 mph 29.9 mph N/A   Mostly Cloudy
4:51 PM 75.9 °F - 62.1 °F 62% 29.78 in 10.0 mi SSW 24.2 mph 32.2 mph N/A   Clear
5:51 PM 75.0 °F - 62.1 °F 64% 29.78 in 10.0 mi SSW 17.3 mph 24.2 mph N/A   Clear
6:51 PM 75.0 °F - 60.1 °F 60% 29.78 in 10.0 mi SSW 18.4 mph 25.3 mph N/A   Partly Cloudy
7:51 PM 73.0 °F - 61.0 °F 66% 29.77 in 10.0 mi SSW 16.1 mph - N/A   Clear
8:51 PM 72.0 °F - 63.0 °F 73% 29.76 in 10.0 mi SSW 15.0 mph - N/A   Clear
9:51 PM 71.1 °F - 64.0 °F 78% 29.77 in 10.0 mi SSW 12.7 mph - N/A   Clear
10:51 PM 71.1 °F - 66.0 °F 84% 29.77 in 10.0 mi SSW 12.7 mph - N/A   Clear
11:51 PM 70.0 °F - 64.9 °F 84% 29.77 in 10.0 mi SSW 15.0 mph - N/A   Clear